RH
30 30 31 32 33 36 42 42 42 39 39 39 40 40 38 38 44 51 54 58 62 60 60 58 59 61 63 67 65 66 67 67 65 60 55 56 55 49 47 41 32 29 27 29 28
29 29 31 32 35 39 40 40 40 38 38 39 40 40 38 40 48 55 60 65 70 66 61 69 69 67 68 70 67 67 66 61 60 57 54 53 53 51 52 47 38 30 27 32 30
28 29 30 31 32 35 37 38 38 38 37 37 37 39 37 41 52 58 61 64 66 71 71 70 70 69 71 69 68 65 62 57 56 54 53 52 53 55 57 55 46 36 27 30 33
23 26 28 29 30 32 33 34 34 34 34 35 36 37 36 42 50 58 59 69 64 70 76 71 68 68 66 68 68 64 60 58 56 56 55 52 52 55 56 55 50 39 28 24 31
18 19 21 24 27 29 31 32 32 32 30 31 33 35 36 39 46 54 59 64 65 67 68 66 66 65 62 63 62 59 58 54 51 51 54 51 52 54 55 53 50 38 33 24 27
10 13 16 18 20 23 26 27 28 29 31 31 30 32 32 36 45 50 55 56 61 63 60 62 62 57 55 55 52 47 50 53 54 52 48 47 50 51 53 53 51 37 34 24 24
8 8 9 12 15 18 21 23 23 26 28 28 27 29 31 28 34 42 48 50 54 59 58 56 54 59 59 55 52 49 49 50 51 51 51 47 48 52 51 52 52 43 36 27 21
10 9 7 7 8 12 15 18 21 23 25 26 26 27 30 29 29 31 40 45 49 55 55 52 55 54 54 53 52 53 48 48 47 47 49 52 55 55 53 50 52 52 39 33 23
11 10 9 8 6 6 9 12 15 18 21 23 24 24 28 30 30 33 38 41 44 50 50 53 54 55 55 54 58 53 53 47 45 45 50 49 51 51 55 55 56 54 51 36 31
12 11 10 9 8 6 6 7 9 12 16 19 21 23 24 28 28 31 32 38 43 46 52 54 56 58 60 58 58 54 52 52 52 45 49 46 46 49 52 55 54 56 57 50 35
10 11 11 10 8 7 7 6 6 7 9 13 16 20 22 24 26 27 27 32 38 42 48 49 50 55 51 50 46 45 49 52 49 48 47 48 49 50 51 53 52 55 57 54 43
8 9 11 10 10 7 7 7 8 8 7 7 11 16 20 21 23 25 25 27 31 36 41 46 47 48 48 45 42 42 49 49 46 47 46 47 46 46 46 48 48 46 50 53 46
7 7 9 11 10 8 7 8 9 9 8 6 5 8 15 19 21 21 20 22 27 31 33 41 43 43 43 42 40 40 49 48 48 50 47 46 47 45 44 42 45 44 43 51 48
7 7 7 10 11 11 9 10 10 10 11 8 8 5 8 14 18 21 20 20 23 26 29 35 37 38 39 40 36 40 38 36 43 50 54 50 50 41 40 40 44 41 38 45 46
6 6 7 8 10 13 12 10 10 10 10 13 11 8 6 10 14 19 20 21 23 25 26 25 30 34 35 38 34 39 38 39 47 51 50 52 53 43 43 43 38 37 38 42 46
6 6 6 7 9 12 13 12 11 11 11 16 13 14 9 9 13 13 16 18 20 24 23 20 23 26 30 33 34 35 37 38 44 47 47 43 51 42 38 37 35 35 36 38 45
6 6 6 6 8 12 14 14 15 15 12 18 17 16 14 12 12 12 12 17 20 22 21 18 18 21 21 25 35 39 36 34 32 39 41 44 47 37 29 30 35 34 35 36 41
6 6 5 6 7 11 15 16 17 11 15 18 19 19 18 15 14 16 14 15 16 18 18 17 15 13 14 21 37 35 34 36 31 38 38 44 43 30 31 34 34 33 33 34 38
6 6 6 5 5 9 15 19 16 15 14 19 22 22 21 18 15 16 14 14 14 15 15 19 16 13 16 21 31 35 34 28 35 40 38 37 34 25 32 34 33 32 34 35 39
6 7 7 6 6 7 14 18 17 17 16 20 22 23 24 24 20 16 14 13 13 15 17 17 17 15 16 17 27 30 28 27 32 34 35 33 33 30 30 32 34 35 35 36 41
6 9 13 10 7 8 13 15 17 18 17 20 22 23 23 25 25 23 21 20 17 17 18 19 18 16 17 20 25 27 27 27 29 33 34 32 27 28 28 30 32 33 38 39 42
6 14 13 12 12 13 13 13 13 15 17 17 22 24 28 28 28 27 25 23 23 24 23 21 19 18 16 21 22 25 24 23 31 29 34 34 27 28 31 31 33 35 41 41 42
9 16 14 13 14 14 13 11 11 15 16 15 17 25 28 30 28 30 29 28 27 28 27 23 23 20 18 20 21 20 21 25 27 28 33 34 29 31 32 34 37 40 42 43 44
14 21 18 16 18 21 22 22 20 19 19 16 15 18 26 30 31 30 33 32 30 30 30 28 26 24 23 20 20 21 21 23 24 28 28 30 29 30 34 37 39 44 45 46 48
19 25 24 24 24 26 27 28 27 26 21 17 16 15 19 25 33 34 34 34 36 35 35 34 32 27 24 23 24 23 24 25 25 26 26 24 29 28 34 37 40 46 49 51 53
22 25 25 24 26 27 28 29 28 28 26 22 16 15 19 21 28 33 34 36 36 37 40 40 40 40 36 36 36 31 30 28 27 29 31 35 33 32 36 37 38 48 52 53 54
18 19 23 25 26 28 31 31 32 31 30 27 25 21 20 24 29 30 31 31 33 34 36 35 41 46 45 42 39 35 32 31 31 35 39 38 33 38 39 39 39 48 53 53 53